Regional Weather Roundup
Issued by NWS

Home | Current Version | Previous Version | Graphics & Text | Print | Product List | Glossary On
Versions: 1 2 3 4 5 6 7 8 9 10 11 12 13 14 15 16 17 18 19 20 21 22 23 24 25 26 27 28 29 30 31 32 33 34 35 36 37 38 39 40 41 42 43 44 45 46 47 48 49 50
000
ASUS43 KFSD 301610
RWRSD

WEATHER ROUNDUP FOR SOUTH DAKOTA
NATIONAL WEATHER SERVICE SIOUX FALLS SD
1100 AM CDT SUN AUG 30 2015

NOTE: "FAIR" INDICATES FEW OR NO CLOUDS BELOW 12,000 FEET WITH NO
SIGNIFICANT WEATHER AND/OR OBSTRUCTIONS TO VISIBILITY.


SDZ001>005-009-010-012>017-301700-
NORTHWEST AND NORTH CENTRAL SOUTH DAKOTA

CITY           SKY/WX    TMP DP  RH WIND       PRES   REMARKS
BUFFALO          N/A     82  56  40 VRB5      29.71F
FAITH            N/A     83  50  31 S18       29.75F
MOBRIDGE       SUNNY     79  61  53 SE15      29.75F
$$

SDZ012>016-024>037-041>051-057-063-072>074-301700-
SOUTHWEST AND SOUTH CENTRAL SOUTH DAKOTA

CITY           SKY/WX    TMP DP  RH WIND       PRES   REMARKS
RAPID CTY ARPT MOSUNNY   80  54  40 SE13      29.82F
PIERRE         SUNNY     85  56  37 S10       29.80F
CUSTER         MOSUNNY   83  43  24 SW8       30.03S
ELLSWORTH AFB  MOSUNNY   80  54  40 S13       29.81S
PHILIP         SUNNY     83  55  38 S12       29.80F
PINE RIDGE     MOSUNNY   80  49  33 S12       29.90S
WINNER         FAIR      80  56  43 S16G24    29.88F
$$

SDZ004>011-016>023-039-040-301700-
NORTHEAST SOUTH DAKOTA

CITY           SKY/WX    TMP DP  RH WIND       PRES   REMARKS
ABERDEEN       MOSUNNY   72  64  76 S16       29.84F
WATERTOWN      SUNNY     72  64  76 S12       29.92S
BROOKINGS      SUNNY     68  61  77 S12       29.98S
SISSETON         N/A     80  65  59 S9        29.84F
$$

SDZ017-020-022-023-036>040-048>070-301700-
SOUTHEAST SOUTH DAKOTA

CITY           SKY/WX    TMP DP  RH WIND       PRES   REMARKS
SIOUX FALLS    PTSUNNY   66  62  87 S10       29.99S
HURON          MOSUNNY   71  64  78 S15G23    29.89S
CHAMBERLAIN    SUNNY     77  61  58 S10G16    29.88S
MITCHELL       SUNNY     73  65  75 S14       29.92F
YANKTON        SUNNY     70  64  83 SE13      29.97S
$$

ABBREVIATIONS USED IN REMARKS
   TC - TEMPERATURE IN CELSIUS
  WCI - WIND CHILL INDEX
   HX - HEAT INDEX
  VSB - VISIBILITY




USA.gov is the U.S. government's official web portal to all federal, state and local government web resources and services.